Simultaneous Nadir Overpasses (SNOs) Predictions

Prediction of SNOs over PacNW region [( 10.00, 139.50) to ( 22.70, 165.60)] between AQUA and NPP Satellites:

Table of predicted SNOs over PacNW region for the next 30.0 days since TLE Epoch: 3/29/2019
Index Date (AQUA) Time (AQUA) AQUA Lat,Lon Date (NPP) Time (NPP) NPP Lat,Lon Distance(km) Time Diff (sec)
1 04/04/2019 15:59:52 22.63, 147.45 04/04/2019 16:01:23 23.27, 144.63 297.11 91
2 04/12/2019 15:10:28 22.64, 159.80 04/12/2019 15:10:33 23.19, 157.32 260.90 5
3 04/20/2019 15:59:57 22.58, 147.42 04/20/2019 16:01:11 23.19, 144.66 290.16 74




NCC Satellite Simultaneous Nadir Overpasses (SNOs) Prediction Service
